Time,TemperatureF,DewpointF,PressureIn,WindDirection,WindDirectionDegrees,WindSpeedMPH,WindSpeedGustMPH,Humidity,HourlyPrecipIn,Conditions,Clouds,dailyrainin,SoftwareType,DateUTC
2013-04-13 00:00:00,25.0,-99.9,-100.00,SSE,152,12.0,16.0,-999,-99.99,,,-99.99,,2013-04-13 06:00:00,
2013-04-13 00:57:00,25.0,-99.9,-100.00,SSE,152,12.0,16.0,-999,-99.99,,,-99.99,,2013-04-13 06:57:00,
2013-04-13 01:00:00,25.0,-99.9,-100.00,ESE,123,13.0,17.0,-999,-99.99,,,-99.99,,2013-04-13 07:00:00,
2013-04-13 01:59:00,25.0,-99.9,-100.00,ESE,123,13.0,17.0,-999,-99.99,,,-99.99,,2013-04-13 07:59:00,
2013-04-13 02:00:00,25.0,-99.9,-100.00,SE,139,10.0,14.0,-999,-99.99,,,-99.99,,2013-04-13 08:00:00,
2013-04-13 02:55:00,25.0,-99.9,-100.00,SE,139,10.0,14.0,-999,-99.99,,,-99.99,,2013-04-13 08:55:00,
2013-04-13 03:00:00,27.0,-99.9,-100.00,SE,136,10.0,15.0,-999,-99.99,,,-99.99,,2013-04-13 09:00:00,
2013-04-13 03:57:00,27.0,-99.9,-100.00,SE,136,10.0,15.0,-999,-99.99,,,-99.99,,2013-04-13 09:57:00,
2013-04-13 04:00:00,27.0,-99.9,-100.00,SE,139,8.0,14.0,-999,-99.99,,,-99.99,,2013-04-13 10:00:00,
2013-04-13 05:00:00,25.0,-99.9,-100.00,South,184,12.0,14.0,-999,-99.99,,,-99.99,,2013-04-13 11:00:00,
2013-04-13 05:54:00,25.0,-99.9,-100.00,South,184,12.0,14.0,-999,-99.99,,,-99.99,,2013-04-13 11:54:00,
2013-04-13 06:00:00,25.0,-99.9,-100.00,South,184,12.0,14.0,-999,-99.99,,,-99.99,,2013-04-13 12:00:00,
2013-04-13 06:58:00,25.0,-99.9,-100.00,South,184,12.0,14.0,-999,-99.99,,,-99.99,,2013-04-13 12:58:00,
2013-04-13 07:00:00,32.0,-99.9,-100.00,SW,227,24.0,27.0,-999,-99.99,,,-99.99,,2013-04-13 13:00:00,
2013-04-13 07:58:00,32.0,-99.9,-100.00,SW,227,24.0,27.0,-999,-99.99,,,-99.99,,2013-04-13 13:58:00,
2013-04-13 08:00:00,32.0,-99.9,-100.00,SW,229,23.0,29.0,-999,-99.99,,,-99.99,,2013-04-13 14:00:00,
2013-04-13 09:59:00,37.0,-99.9,-100.00,SW,221,33.0,43.0,-999,-99.99,,,-99.99,,2013-04-13 15:59:00,
2013-04-13 10:08:00,37.0,-99.9,-100.00,SW,222,37.0,48.0,-999,-99.99,,,-99.99,,2013-04-13 16:08:00,
2013-04-13 10:18:00,37.0,-99.9,-100.00,SW,222,37.0,48.0,-999,-99.99,,,-99.99,,2013-04-13 16:18:00,
2013-04-13 10:20:00,39.0,-99.9,-100.00,SW,224,40.0,44.0,-999,-99.99,,,-99.99,,2013-04-13 16:20:00,
2013-04-13 10:25:00,39.0,-99.9,-100.00,SW,217,46.0,52.0,-999,-99.99,,,-99.99,,2013-04-13 16:25:00,
2013-04-13 10:37:00,39.0,-99.9,-100.00,SW,229,29.0,50.0,-999,-99.99,,,-99.99,,2013-04-13 16:37:00,
2013-04-13 10:49:00,39.0,-99.9,-100.00,SW,229,29.0,50.0,-999,-99.99,,,-99.99,,2013-04-13 16:49:00,
2013-04-13 11:00:00,43.0,-99.9,-100.00,SW,221,30.0,44.0,-999,-99.99,,,-99.99,,2013-04-13 17:00:00,
2013-04-13 11:09:00,39.0,-99.9,-100.00,SW,224,40.0,44.0,-999,-99.99,,,-99.99,,2013-04-13 17:09:00,
2013-04-13 11:27:00,41.0,-99.9,-100.00,SSW,211,34.0,48.0,-999,-99.99,,,-99.99,,2013-04-13 17:27:00,
2013-04-13 11:39:00,43.0,-99.9,-100.00,SW,229,25.0,46.0,-999,-99.99,,,-99.99,,2013-04-13 17:39:00,
2013-04-13 12:00:00,41.0,-99.9,-100.00,SW,221,28.0,46.0,-999,-99.99,,,-99.99,,2013-04-13 18:00:00,
2013-04-13 12:25:00,41.0,-99.9,-100.00,SSW,209,38.0,50.0,-999,-99.99,,,-99.99,,2013-04-13 18:25:00,
2013-04-13 12:33:00,41.0,-99.9,-100.00,SW,222,41.0,44.0,-999,-99.99,,,-99.99,,2013-04-13 18:33:00,
2013-04-13 12:42:00,41.0,-99.9,-100.00,SW,222,41.0,44.0,-999,-99.99,,,-99.99,,2013-04-13 18:42:00,
2013-04-13 12:53:00,41.0,-99.9,-100.00,SW,221,28.0,46.0,-999,-99.99,,,-99.99,,2013-04-13 18:53:00,
2013-04-13 13:00:00,41.0,-99.9,-100.00,SSW,209,30.0,33.0,-999,-99.99,,,-99.99,,2013-04-13 19:00:00,
2013-04-13 13:53:00,41.0,-99.9,-100.00,SSW,209,30.0,33.0,-999,-99.99,,,-99.99,,2013-04-13 19:53:00,
2013-04-13 14:00:00,41.0,-99.9,-100.00,South,190,24.0,42.0,-999,-99.99,,,-99.99,,2013-04-13 20:00:00,
2013-04-13 14:53:00,41.0,-99.9,-100.00,South,190,24.0,42.0,-999,-99.99,,,-99.99,,2013-04-13 20:53:00,
2013-04-13 15:00:00,41.0,-99.9,-100.00,SW,221,21.0,40.0,-999,-99.99,,,-99.99,,2013-04-13 21:00:00,
2013-04-13 15:53:00,41.0,-99.9,-100.00,SW,221,21.0,40.0,-999,-99.99,,,-99.99,,2013-04-13 21:53:00,
2013-04-13 16:00:00,41.0,-99.9,-100.00,SW,218,32.0,45.0,-999,-99.99,,,-99.99,,2013-04-13 22:00:00,
2013-04-13 16:53:00,41.0,-99.9,-100.00,SW,218,32.0,45.0,-999,-99.99,,,-99.99,,2013-04-13 22:53:00,
2013-04-13 17:00:00,39.0,-99.9,-100.00,SW,220,26.0,38.0,-999,-99.99,,,-99.99,,2013-04-13 23:00:00,
2013-04-13 17:53:00,39.0,-99.9,-100.00,SW,220,26.0,38.0,-999,-99.99,,,-99.99,,2013-04-13 23:53:00,
2013-04-13 18:00:00,37.0,-99.9,-100.00,SW,229,27.0,36.0,-999,-99.99,,,-99.99,,2013-04-14 00:00:00,
2013-04-13 18:52:00,37.0,-99.9,-100.00,SW,229,27.0,36.0,-999,-99.99,,,-99.99,,2013-04-14 00:52:00,
2013-04-13 19:00:00,36.0,-99.9,-100.00,SW,232,16.0,36.0,-999,-99.99,,,-99.99,,2013-04-14 01:00:00,
2013-04-13 19:53:00,36.0,-99.9,-100.00,SW,232,16.0,36.0,-999,-99.99,,,-99.99,,2013-04-14 01:53:00,
2013-04-13 20:00:00,32.0,-99.9,-100.00,WSW,239,19.0,24.0,-999,-99.99,,,-99.99,,2013-04-14 02:00:00,
2013-04-13 20:53:00,32.0,-99.9,-100.00,WSW,239,19.0,24.0,-999,-99.99,,,-99.99,,2013-04-14 02:53:00,
2013-04-13 21:00:00,41.0,-99.9,-100.00,WSW,244,22.0,25.0,-999,-99.99,,,-99.99,,2013-04-14 03:00:00,
2013-04-13 21:54:00,41.0,-99.9,-100.00,WSW,244,22.0,25.0,-999,-99.99,,,-99.99,,2013-04-14 03:54:00,
2013-04-13 23:32:00,115.0,-99.9,-100.00,North,0,0.0,64.0,-999,-99.99,,,-99.99,,2013-04-14 05:32:00,
2013-04-13 23:43:00,115.0,-99.9,-100.00,North,0,0.0,64.0,-999,-99.99,,,-99.99,,2013-04-14 05:43:00,
2013-04-13 23:53:00,34.0,-99.9,-100.00,West,265,29.0,40.0,-999,-99.99,,,-99.99,,2013-04-14 05:53:00,